Weather in Trikraty

Ukraine / Mykolaiv District     47°42′59″N   31°24′16″E
temp.,
°C
wind,
m/s
gust,
m/s
humid.,
%
clouds,
%
prec.,
mm/h
press.,
hPa
HPBL,
m
18 may, tue
tue1800:00+16s357690 0.0 1004121
03:00+12s379410 0.0 1004138
06:00+12s399699 0.0 1003242
09:00+17sse577755 0.2 1003577
12:00+19s91062100 2.3 10011396
15:00+18s787389 3.9 10001209
18:00+18ssw687339 2.7 10001029
21:00+13ssw499257 4.9 999184
19 may, wed
wed1900:00+12s4108793 0.3 1000245
03:00+10ssw379653 0.3 1000174
06:00+10sse369763 0.0 1001191
09:00+13sse4579100 0.0 1002784
12:00+15w227426 0.0 1003656
15:00+14nw9118293 0.5 1005608
18:00+14wnw71080100 0.1 1007939
21:00+12w4108576 0.1 1009244
20 may, thu
thu2000:00+11nw37915 0.0 1009125
03:00+10w349517 0.0 101075
06:00+10w34955 0.0 101087
09:00+15wnw237536 0.0 1011503
12:00+17ssw3363100 0.0 1011911
15:00+15w1181100 0.4 1011142
18:00+13ne3491100 1.8 1012161
21:00+13ene5893100 2.9 1011226
21 may, fri
fri2100:00+12ene5109388 0.4 1011271
03:00+12ene61393100 1.0 1011439
06:00+12ne51389100 0.0 1010491
09:00+15ene7979100 0.0 1010765
12:00+17ene5676100 0.1 1010884
15:00+18nne6775100 0.1 1010674
18:00+17nne7978100 0.0 1010545
21:00+13n8148677 0.0 1011395
22 may, sat
sat2200:00+13nne71388100 0.0 1010427
03:00+13n61091100 0.0 1011388
06:00+13n51090100 0.0 1011415
09:00+16n7983100 0.0 1011590
12:00+17nne678198 0.0 1012659
15:00+21nne456639 0.0 10111011
18:00+19n667626 0.0 1012533
21:00+15n479061 0.0 1012126